Deutsch Jahrndorf, Austria

7:54 AM CEST on July 21, 2017 (GMT +0200)
Deutsch Jahrndorf

Weather History for 11813 - December, 2013

Change the Weather History Date:

Tuesday, December 10, 2013

  Actual Average Record
Temperature  
Mean Temperature 42 °F -  
Max Temperature 48 °F - - ()
Min Temperature 35 °F - - ()
Degree Days  
Heating Degree Days 23    
Moisture  
Dew Point 33 °F    
Average Humidity 62    
Maximum Humidity 84    
Minimum Humidity 39    
Precipitation  
Precipitation 0.00 in - - ()
Sea Level Pressure  
Sea Level Pressure 30.58 in    
Wind  
Wind Speed 5 mph ()    
Max Wind Speed 9 mph    
Max Gust Speed -    
Visibility 13.0 miles    
Events Rain    
T = Trace of Precipitation, MM = Missing Value Source: Averaged Metar Reports

Daily Weather History Graph

Daily Weather History Graph

Search for Another Location

Airport or City:

Trip Planner

Search our weather history database for the weather conditions in past years. The results will help you decide how hot, cold, wet, or windy it might be!

Date:

Astronomy

Dec. 10, 2013 Rise Set
Actual Time 7:30 AM CET 3:58 PM CET
Civil Twilight 6:54 AM CET 4:34 PM CET
Nautical Twilight 6:14 AM CET 5:13 PM CET
Astronomical Twilight 5:37 AM CET 5:51 PM CET
Moon 12:15 PM CET (12/10) 12:02 AM CET (12/10)
Length of Visible Light 9h 40m
Length of Day
8h 27m
First Quarter, 59% of the Moon is Illuminated
Dec 10
First Quarter
Dec 17
Full
Dec 25
Last Quarter
Jan 1
New
Jan 8
First Quarter

Hourly Weather History & Observations

Time (CET) Temp. Dew Point Humidity Pressure Visibility Wind Dir Wind Speed Gust Speed Precip Events Conditions
12:00 AM 42 °F 37 °F 77% 30.38 in - West 8.9 mph - -  
1:00 AM 42 °F 37 °F 78% 30.40 in - West 6.7 mph - -  
2:00 AM 42 °F 38 °F 80% 30.41 in - West 8.9 mph - -  
3:00 AM 43 °F 38 °F 78% 30.43 in - West 8.9 mph - -  
4:00 AM 43 °F 39 °F 79% 30.45 in - WNW 8.9 mph - -  
5:00 AM 43 °F 39 °F 80% 30.47 in - West 8.9 mph - -  
6:00 AM 43 °F 39 °F 80% 30.49 in - West 8.9 mph - -  
7:00 AM 43 °F 40 °F 84% 30.51 in 12 mi 4.5 mph - - Rain Light Rain
8:00 AM 43 °F 40 °F 84% 30.54 in 9 mi 2.2 mph - - Rain Light Rain
9:00 AM 43 °F 39 °F 79% 30.57 in 12 mi 2.2 mph - -   Mostly Cloudy
10:00 AM 43 °F 37 °F 73% 30.60 in 12 mi 2.2 mph - - Rain Light Rain
11:00 AM 43 °F 35 °F 63% 30.61 in 16 mi 4.5 mph - - Rain Light Rain
12:00 PM 48 °F 35 °F 51% 30.60 in 19 mi North 6.7 mph - -   Partly Cloudy
1:00 PM 46 °F 31 °F 45% 30.62 in 12 mi Calm Calm - -   Partly Cloudy
2:00 PM 45 °F 34 °F 55% 30.63 in 12 mi 4.5 mph - -   Partly Cloudy
3:00 PM 42 °F 28 °F 46% 30.65 in - 2.2 mph - -  
4:00 PM 42 °F 30 °F 51% 30.66 in - Calm Calm - -  
5:00 PM 41 °F 29 °F 51% 30.67 in - Calm Calm - -  
6:00 PM 39 °F 25 °F 44% 30.68 in - NNE 4.5 mph - -  
7:00 PM 39 °F 24 °F 41% 30.69 in - 2.2 mph - -  
8:00 PM 39 °F 23 °F 39% 30.70 in - 2.2 mph - -  
9:00 PM 38 °F 22 °F 40% 30.71 in - Calm Calm - -  
10:00 PM 36 °F 23 °F 48% 30.71 in - 2.2 mph - -  
11:00 PM 35 °F 24 °F 54% 30.72 in - 2.2 mph - -